Location: Tucson
(32.2220°N, 110.9260°W)
Time: 06:57:31
(UTC-07:00)

GENESIS II - Visible Passes

Search period start: 24 June 2017 00:00
Search period end: 04 July 2017 00:00
Orbit: 498 x 537 km, 64.5° (Epoch: 23 June)

Date Brightness Start Highest point End Pass type
(mag) Time Alt. Az. Time Alt. Az. Time Alt. Az.
24 Jun 6.5 02:26:48 18° E 02:26:48 18° E 02:28:57 10° ENE visible
24 Jun 5.5 04:01:50 20° W 04:03:38 28° NW 04:07:09 10° N visible
25 Jun 6.7 02:12:16 17° E 02:12:16 17° E 02:13:53 10° ENE visible
25 Jun 5.6 03:47:18 23° W 03:48:30 27° NW 03:51:58 10° N visible
26 Jun 6.9 01:57:40 15° ENE 01:57:40 15° ENE 01:58:49 10° ENE visible
26 Jun 5.6 03:32:42 25° WNW 03:33:22 26° NW 03:36:47 10° N visible
27 Jun 7.1 01:43:02 13° ENE 01:43:02 13° ENE 01:43:44 10° ENE visible
27 Jun 5.7 03:18:03 25° WNW 03:18:14 25° NW 03:21:37 10° N visible
28 Jun 7.2 01:28:20 11° ENE 01:28:20 11° ENE 01:28:40 10° ENE visible
28 Jun 5.9 03:03:21 24° NW 03:03:21 24° NW 03:06:25 10° N visible
29 Jun 6.1 02:48:36 22° NW 02:48:36 22° NW 02:51:13 10° N visible
30 Jun 6.4 02:33:49 20° NNW 02:33:49 20° NNW 02:36:01 10° N visible
01 Jul 6.6 02:18:59 18° NNW 02:18:59 18° NNW 02:20:49 10° N visible
02 Jul 6.8 02:04:06 17° NNW 02:04:06 17° NNW 02:05:37 10° N visible
03 Jul 7.0 01:49:10 15° NNW 01:49:10 15° NNW 01:50:25 10° N visible
